Location: Unspecified
(0.0000°N, 0.0000°E)
Time: 04:32:35
(UTC+00:00)

ISS - Visible Passes

Search period start: 27 May 2016 00:00
Search period end: 06 June 2016 00:00
Orbit: 402 x 404 km, 51.6° (Epoch: 26 May)

Date Brightness Start Highest point End Pass type
(mag) Time Alt. Az. Time Alt. Az. Time Alt. Az.
29 May -0.2 04:57:34 10° N 04:59:57 19° NE 05:02:20 10° ESE visible
31 May -3.3 04:47:32 10° NNW 04:50:45 78° NE 04:54:00 10° SE visible
01 Jun -0.7 03:59:24 19° E 03:59:24 19° E 04:00:47 10° ESE visible
